owner,sensor,date,latitude,longitude,vertical_datum,direction_of_sea_water_velocity,sea_water_speed,upward_sea_water_velocity,qcFlag 
TABS,ioos:station:wmo:42043:1,2003-12-01T00:00:00Z,28.9818,-94.9186,2.0,34.40727409,19.50201272,-99999.0,'11111222,11111222,99999999' 
TABS,ioos:station:wmo:42043:1,2003-12-01T00:30:00Z,28.9818,-94.9186,2.0,30.64047931,19.44481936,-99999.0,'11111222,11111222,99999999' 
TABS,ioos:station:wmo:42043:1,2003-12-01T01:00:00Z,28.9818,-94.9186,2.0,24.71055998,23.49101956,-99999.0,'11111222,11111222,99999999' 
TABS,ioos:station:wmo:42043:1,2003-12-01T01:30:00Z,28.9818,-94.9186,2.0,26.53599684,17.54866377,-99999.0,'11111222,11111222,99999999' 
TABS,ioos:station:wmo:42043:1,2003-12-01T02:00:00Z,28.9818,-94.9186,2.0,21.31464885,19.01031825,-99999.0,'11111222,11111222,99999999' 
TABS,ioos:station:wmo:42043:1,2003-12-01T02:30:00Z,28.9818,-94.9186,2.0,27.87645885,15.63420929,-99999.0,'11111222,11111222,99999999' 
TABS,ioos:station:wmo:42043:1,2003-12-01T03:00:00Z,28.9818,-94.9186,2.0,29.33130599,14.08575167,-99999.0,'11111222,11111222,99999999' 
TABS,ioos:station:wmo:42043:1,2003-12-01T03:30:00Z,28.9818,-94.9186,2.0,32.81105114,14.09936523,-99999.0,'11111222,11111222,99999999' 
TABS,ioos:station:wmo:42043:1,2003-12-01T04:00:00Z,28.9818,-94.9186,2.0,45.31456774,12.8836796,-99999.0,'11111222,11111222,99999999' 
TABS,ioos:station:wmo:42043:1,2003-12-01T04:30:00Z,28.9818,-94.9186,2.0,64.83870735,11.50131297,-99999.0,'11111222,11111222,99999999' 
TABS,ioos:station:wmo:42043:1,2003-12-01T05:00:00Z,28.9818,-94.9186,2.0,74.40188347,12.01240192,-99999.0,'11111222,11111222,99999999' 
TABS,ioos:station:wmo:42043:1,2003-12-01T05:30:00Z,28.9818,-94.9186,2.0,78.07141836,11.07924636,-99999.0,'11111222,11111222,99999999' 
TABS,ioos:station:wmo:42043:1,2003-12-01T06:00:00Z,28.9818,-94.9186,2.0,103.3984087,8.933140545,-99999.0,'11133222,11111222,99999999' 
TABS,ioos:station:wmo:42043:1,2003-12-01T06:30:00Z,28.9818,-94.9186,2.0,87.20579209,9.23097503,-99999.0,'11133222,11111222,99999999' 
TABS,ioos:station:wmo:42043:1,2003-12-01T07:00:00Z,28.9818,-94.9186,2.0,100.8640345,9.072607123,-99999.0,'11133222,11111222,99999999' 
TABS,ioos:station:wmo:42043:1,2003-12-01T07:30:00Z,28.9818,-94.9186,2.0,105.6914941,8.060397013,-99999.0,'11133222,11111222,99999999' 
TABS,ioos:station:wmo:42043:1,2003-12-01T08:00:00Z,28.9818,-94.9186,2.0,109.960169,6.415372164,-99999.0,'11133222,11111222,99999999' 
TABS,ioos:station:wmo:42043:1,2003-12-01T08:30:00Z,28.9818,-94.9186,2.0,115.8586971,6.167544082,-99999.0,'11133222,11111222,99999999' 
TABS,ioos:station:wmo:42043:1,2003-12-01T09:00:00Z,28.9818,-94.9186,2.0,122.3498417,6.522284876,-99999.0,'11133222,11111222,99999999' 
TABS,ioos:station:wmo:42043:1,2003-12-01T09:30:00Z,28.9818,-94.9186,2.0,104.9656664,5.382573734,-99999.0,'11133222,11111222,99999999' 
TABS,ioos:station:wmo:42043:1,2003-12-01T10:00:00Z,28.9818,-94.9186,2.0,84.20412717,5.347335785,-99999.0,'11133222,11111222,99999999' 
TABS,ioos:station:wmo:42043:1,2003-12-01T10:30:00Z,28.9818,-94.9186,2.0,97.61134206,4.529911699,-99999.0,'11133222,11111222,99999999' 
TABS,ioos:station:wmo:42043:1,2003-12-01T11:00:00Z,28.9818,-94.9186,2.0,89.05694697,4.860658392,-99999.0,'11133222,11111222,99999999' 
TABS,ioos:station:wmo:42043:1,2003-12-01T11:30:00Z,28.9818,-94.9186,2.0,81.66257506,2.34478144,-99999.0,'11133222,11111222,99999999' 
TABS,ioos:station:wmo:42043:1,2003-12-01T12:00:00Z,28.9818,-94.9186,2.0,82.43031265,3.036461757,-99999.0,'11133222,11111222,99999999' 
TABS,ioos:station:wmo:42043:1,2003-12-01T12:30:00Z,28.9818,-94.9186,2.0,51.39150757,3.49360845,-99999.0,'11133222,11111222,99999999' 
TABS,ioos:station:wmo:42043:1,2003-12-01T13:00:00Z,28.9818,-94.9186,2.0,60.44777794,3.6900542,-99999.0,'11133222,11111222,99999999' 
TABS,ioos:station:wmo:42043:1,2003-12-01T13:30:00Z,28.9818,-94.9186,2.0,48.75865213,3.883297568,-99999.0,'11133222,11111222,99999999' 
TABS,ioos:station:wmo:42043:1,2003-12-01T14:00:00Z,28.9818,-94.9186,2.0,70.93376286,2.295952961,-99999.0,'11133222,11111222,99999999' 
TABS,ioos:station:wmo:42043:1,2003-12-01T14:30:00Z,28.9818,-94.9186,2.0,40.1301749,4.747683646,-99999.0,'11133222,11111222,99999999' 
TABS,ioos:station:wmo:42043:1,2003-12-01T15:00:00Z,28.9818,-94.9186,2.0,73.20613047,2.318900602,-99999.0,'11133222,11111222,99999999' 
TABS,ioos:station:wmo:42043:1,2003-12-01T15:30:00Z,28.9818,-94.9186,2.0,127.7938546,0.62008064,-99999.0,'11133222,11111222,99999999' 
TABS,ioos:station:wmo:42043:1,2003-12-01T16:00:00Z,28.9818,-94.9186,2.0,334.8957005,1.579177001,-99999.0,'11133222,11111222,99999999' 
TABS,ioos:station:wmo:42043:1,2003-12-01T16:30:00Z,28.9818,-94.9186,2.0,56.4271801,1.356244816,-99999.0,'11133222,11111222,99999999' 
TABS,ioos:station:wmo:42043:1,2003-12-01T17:00:00Z,28.9818,-94.9186,2.0,251.1306238,0.834865259,-99999.0,'11133222,11111222,99999999' 
TABS,ioos:station:wmo:42043:1,2003-12-01T17:30:00Z,28.9818,-94.9186,2.0,302.9697477,2.646129249,-99999.0,'11133222,11111222,99999999' 
TABS,ioos:station:wmo:42043:1,2003-12-01T18:00:00Z,28.9818,-94.9186,2.0,129.9202988,0.638905314,-99999.0,'11133222,11111222,99999999' 
TABS,ioos:station:wmo:42043:1,2003-12-01T18:30:00Z,28.9818,-94.9186,2.0,244.4789262,1.717585515,-99999.0,'11133222,11111222,99999999' 
TABS,ioos:station:wmo:42043:1,2003-12-01T19:00:00Z,28.9818,-94.9186,2.0,237.6437456,1.905911855,-99999.0,'11133222,11111222,99999999' 
TABS,ioos:station:wmo:42043:1,2003-12-01T19:30:00Z,28.9818,-94.9186,2.0,272.602977,1.761817244,-99999.0,'11133222,11111222,99999999' 
TABS,ioos:station:wmo:42043:1,2003-12-01T20:00:00Z,28.9818,-94.9186,2.0,272.2910256,0.75059976,-99999.0,'11133222,11111222,99999999' 
TABS,ioos:station:wmo:42043:1,2003-12-01T20:30:00Z,28.9818,-94.9186,2.0,265.9139719,1.543923573,-99999.0,'11133222,11111222,99999999' 
TABS,ioos:station:wmo:42043:1,2003-12-01T21:00:00Z,28.9818,-94.9186,2.0,258.7936578,1.080601684,-99999.0,'11133222,11111222,99999999' 
TABS,ioos:station:wmo:42043:1,2003-12-01T21:30:00Z,28.9818,-94.9186,2.0,309.130729,3.042367499,-99999.0,'11133222,11111222,99999999' 
TABS,ioos:station:wmo:42043:1,2003-12-01T22:00:00Z,28.9818,-94.9186,2.0,61.18927363,0.684762733,-99999.0,'11133222,11111222,99999999' 
TABS,ioos:station:wmo:42043:1,2003-12-01T22:30:00Z,28.9818,-94.9186,2.0,41.42377922,1.133578405,-99999.0,'11133222,11111222,99999999' 
TABS,ioos:station:wmo:42043:1,2003-12-01T23:00:00Z,28.9818,-94.9186,2.0,4.76384101,2.28790297,-99999.0,'11133222,11111222,99999999' 
TABS,ioos:station:wmo:42043:1,2003-12-01T23:30:00Z,28.9818,-94.9186,2.0,5.088458758,2.93155249,-99999.0,'11133222,11111222,99999999' 
TABS,ioos:station:wmo:42043:1,2003-12-02T00:00:00Z,28.9818,-94.9186,2.0,2.145112247,2.671872003,-99999.0,'11133222,11111222,99999999' 
TABS,ioos:station:wmo:42043:1,2003-12-02T00:30:00Z,28.9818,-94.9186,2.0,1.056772667,4.880829847,-99999.0,'11133222,11111222,99999999' 
TABS,ioos:station:wmo:42043:1,2003-12-02T01:00:00Z,28.9818,-94.9186,2.0,337.6774043,4.896988871,-99999.0,'11133222,11111222,99999999' 
TABS,ioos:station:wmo:42043:1,2003-12-02T01:30:00Z,28.9818,-94.9186,2.0,344.4623279,4.44235298,-99999.0,'11133222,11111222,99999999' 
TABS,ioos:station:wmo:42043:1,2003-12-02T02:00:00Z,28.9818,-94.9186,2.0,346.6996072,4.911751215,-99999.0,'11133222,11111222,99999999' 
TABS,ioos:station:wmo:42043:1,2003-12-02T02:30:00Z,28.9818,-94.9186,2.0,344.0802488,6.197709254,-99999.0,'11133222,11111222,99999999' 
TABS,ioos:station:wmo:42043:1,2003-12-02T03:00:00Z,28.9818,-94.9186,2.0,337.6374376,7.201610931,-99999.0,'11133222,11111222,99999999' 
TABS,ioos:station:wmo:42043:1,2003-12-02T03:30:00Z,28.9818,-94.9186,2.0,345.9374125,5.226643282,-99999.0,'11133222,11111222,99999999' 
TABS,ioos:station:wmo:42043:1,2003-12-02T04:00:00Z,28.9818,-94.9186,2.0,350.2907958,5.336440761,-99999.0,'11133222,11111222,99999999' 
TABS,ioos:station:wmo:42043:1,2003-12-02T04:30:00Z,28.9818,-94.9186,2.0,9.46251054,6.751866409,-99999.0,'11133222,11111222,99999999' 
TABS,ioos:station:wmo:42043:1,2003-12-02T05:00:00Z,28.9818,-94.9186,2.0,5.05472278,5.56162746,-99999.0,'11133222,11111222,99999999' 
TABS,ioos:station:wmo:42043:1,2003-12-02T05:30:00Z,28.9818,-94.9186,2.0,4.754222805,4.947019305,-99999.0,'11133222,11111222,99999999' 
TABS,ioos:station:wmo:42043:1,2003-12-02T06:00:00Z,28.9818,-94.9186,2.0,2.969951943,5.597517307,-99999.0,'11133222,11111222,99999999' 
TABS,ioos:station:wmo:42043:1,2003-12-02T06:30:00Z,28.9818,-94.9186,2.0,337.5059679,4.913857955,-99999.0,'11133222,11111222,99999999' 
TABS,ioos:station:wmo:42043:1,2003-12-02T07:00:00Z,28.9818,-94.9186,2.0,347.4376393,3.678056552,-99999.0,'11133222,11111222,99999999' 
TABS,ioos:station:wmo:42043:1,2003-12-02T07:30:00Z,28.9818,-94.9186,2.0,293.9261807,4.758928451,-99999.0,'11133222,11111222,99999999' 
TABS,ioos:station:wmo:42043:1,2003-12-02T08:00:00Z,28.9818,-94.9186,2.0,287.6458021,5.278342543,-99999.0,'11133222,11111222,99999999' 
TABS,ioos:station:wmo:42043:1,2003-12-02T08:30:00Z,28.9818,-94.9186,2.0,288.2965965,5.224098008,-99999.0,'11133222,11111222,99999999' 
TABS,ioos:station:wmo:42043:1,2003-12-02T09:00:00Z,28.9818,-94.9186,2.0,277.8585811,8.045551566,-99999.0,'11133222,11111222,99999999' 
TABS,ioos:station:wmo:42043:1,2003-12-02T09:30:00Z,28.9818,-94.9186,2.0,258.2559222,8.548947304,-99999.0,'11133222,11111222,99999999' 
TABS,ioos:station:wmo:42043:1,2003-12-02T10:00:00Z,28.9818,-94.9186,2.0,262.8611988,10.62233496,-99999.0,'11111222,11111222,99999999' 
TABS,ioos:station:wmo:42043:1,2003-12-02T10:30:00Z,28.9818,-94.9186,2.0,251.7290532,9.920105846,-99999.0,'11133222,11111222,99999999' 
TABS,ioos:station:wmo:42043:1,2003-12-02T11:00:00Z,28.9818,-94.9186,2.0,272.0874416,9.336193014,-99999.0,'11133222,11111222,99999999' 
TABS,ioos:station:wmo:42043:1,2003-12-02T11:30:00Z,28.9818,-94.9186,2.0,259.6315862,8.112459553,-99999.0,'11133222,11111222,99999999' 
TABS,ioos:station:wmo:42043:1,2003-12-02T12:00:00Z,28.9818,-94.9186,2.0,257.1429118,8.718577866,-99999.0,'11133222,11111222,99999999' 
TABS,ioos:station:wmo:42043:1,2003-12-02T12:30:00Z,28.9818,-94.9186,2.0,265.3476556,9.370869757,-99999.0,'11133222,11111222,99999999' 
TABS,ioos:station:wmo:42043:1,2003-12-02T13:00:00Z,28.9818,-94.9186,2.0,269.3394116,12.15080656,-99999.0,'11111222,11111222,99999999' 
TABS,ioos:station:wmo:42043:1,2003-12-02T13:30:00Z,28.9818,-94.9186,2.0,280.3177025,12.33951782,-99999.0,'11111222,11111222,99999999' 
TABS,ioos:station:wmo:42043:1,2003-12-02T14:00:00Z,28.9818,-94.9186,2.0,272.7369305,10.68218143,-99999.0,'11111222,11111222,99999999' 
TABS,ioos:station:wmo:42043:1,2003-12-02T14:30:00Z,28.9818,-94.9186,2.0,266.3857068,13.32649992,-99999.0,'11111222,11111222,99999999' 
TABS,ioos:station:wmo:42043:1,2003-12-02T15:00:00Z,28.9818,-94.9186,2.0,269.4925512,13.56053096,-99999.0,'11111222,11111222,99999999' 
TABS,ioos:station:wmo:42043:1,2003-12-02T15:30:00Z,28.9818,-94.9186,2.0,263.4417988,15.41083061,-99999.0,'11111222,11111222,99999999' 
TABS,ioos:station:wmo:42043:1,2003-12-02T16:00:00Z,28.9818,-94.9186,2.0,272.6154332,35.50697537,-99999.0,'11111222,11111222,99999999' 
TABS,ioos:station:wmo:42043:1,2003-12-02T16:30:00Z,28.9818,-94.9186,2.0,267.3956798,38.74,-99999.0,'11111222,11111222,99999999' 
TABS,ioos:station:wmo:42043:1,2003-12-02T17:00:00Z,28.9818,-94.9186,2.0,263.6258744,37.74329344,-99999.0,'11111222,11111222,99999999' 
TABS,ioos:station:wmo:42043:1,2003-12-02T17:30:00Z,28.9818,-94.9186,2.0,262.7686761,37.57886773,-99999.0,'11111222,11111222,99999999' 
TABS,ioos:station:wmo:42043:1,2003-12-02T18:00:00Z,28.9818,-94.9186,2.0,261.2570953,35.72507523,-99999.0,'11111222,11111222,99999999' 
TABS,ioos:station:wmo:42043:1,2003-12-02T18:30:00Z,28.9818,-94.9186,2.0,259.1522576,35.70802851,-99999.0,'11111222,11111222,99999999' 
TABS,ioos:station:wmo:42043:1,2003-12-02T19:00:00Z,28.9818,-94.9186,2.0,256.8475366,37.09296429,-99999.0,'11111222,11111222,99999999' 
TABS,ioos:station:wmo:42043:1,2003-12-02T19:30:00Z,28.9818,-94.9186,2.0,255.2832017,37.5932454,-99999.0,'11111222,11111222,99999999' 
TABS,ioos:station:wmo:42043:1,2003-12-02T20:00:00Z,28.9818,-94.9186,2.0,257.1660395,38.13257531,-99999.0,'11111222,11111222,99999999' 
TABS,ioos:station:wmo:42043:1,2003-12-02T20:30:00Z,28.9818,-94.9186,2.0,255.6990165,34.16878254,-99999.0,'11111222,11111222,99999999' 
TABS,ioos:station:wmo:42043:1,2003-12-02T21:00:00Z,28.9818,-94.9186,2.0,255.2944164,33.44551689,-99999.0,'11111222,11111222,99999999' 
TABS,ioos:station:wmo:42043:1,2003-12-02T21:30:00Z,28.9818,-94.9186,2.0,256.0702715,31.19741175,-99999.0,'11111222,11111222,99999999' 
TABS,ioos:station:wmo:42043:1,2003-12-02T22:00:00Z,28.9818,-94.9186,2.0,252.2679242,28.59863109,-99999.0,'11111222,11111222,99999999' 
TABS,ioos:station:wmo:42043:1,2003-12-02T22:30:00Z,28.9818,-94.9186,2.0,249.3610414,26.81064341,-99999.0,'11111222,11111222,99999999' 
TABS,ioos:station:wmo:42043:1,2003-12-02T23:00:00Z,28.9818,-94.9186,2.0,236.7736231,23.28707796,-99999.0,'11111222,11111222,99999999' 
TABS,ioos:station:wmo:42043:1,2003-12-02T23:30:00Z,28.9818,-94.9186,2.0,232.7632965,23.76448611,-99999.0,'11111222,11111222,99999999' 
TABS,ioos:station:wmo:42043:1,2003-12-03T00:00:00Z,28.9818,-94.9186,2.0,235.9644765,26.2461159,-99999.0,'11111222,11111222,99999999' 
TABS,ioos:station:wmo:42043:1,2003-12-03T00:30:00Z,28.9818,-94.9186,2.0,223.3732444,27.40435732,-99999.0,'11111222,11111222,99999999' 
TABS,ioos:station:wmo:42043:1,2003-12-03T01:00:00Z,28.9818,-94.9186,2.0,236.1097226,21.46702821,-99999.0,'11111222,11111222,99999999' 
TABS,ioos:station:wmo:42043:1,2003-12-03T01:30:00Z,28.9818,-94.9186,2.0,236.8696704,20.1449001,-99999.0,'11111222,11111222,99999999' 
TABS,ioos:station:wmo:42043:1,2003-12-03T02:00:00Z,28.9818,-94.9186,2.0,243.537985,17.34744362,-99999.0,'11111222,11111222,99999999' 
TABS,ioos:station:wmo:42043:1,2003-12-03T02:30:00Z,28.9818,-94.9186,2.0,240.9729886,15.93103261,-99999.0,'11111222,11111222,99999999' 
TABS,ioos:station:wmo:42043:1,2003-12-03T03:00:00Z,28.9818,-94.9186,2.0,244.9907259,13.00976941,-99999.0,'11111222,11111222,99999999' 
TABS,ioos:station:wmo:42043:1,2003-12-03T03:30:00Z,28.9818,-94.9186,2.0,235.869138,13.34925466,-99999.0,'11111222,11111222,99999999' 
TABS,ioos:station:wmo:42043:1,2003-12-03T04:00:00Z,28.9818,-94.9186,2.0,241.1888527,11.41271221,-99999.0,'11111222,11111222,99999999' 
TABS,ioos:station:wmo:42043:1,2003-12-03T04:30:00Z,28.9818,-94.9186,2.0,242.8699052,11.79806764,-99999.0,'11111222,11111222,99999999' 
TABS,ioos:station:wmo:42043:1,2003-12-03T05:00:00Z,28.9818,-94.9186,2.0,250.4333086,10.57039261,-99999.0,'11111222,11111222,99999999' 
TABS,ioos:station:wmo:42043:1,2003-12-03T05:30:00Z,28.9818,-94.9186,2.0,249.1937236,12.07759082,-99999.0,'11111222,11111222,99999999' 
TABS,ioos:station:wmo:42043:1,2003-12-03T06:00:00Z,28.9818,-94.9186,2.0,238.3452496,12.80501464,-99999.0,'11111222,11111222,99999999' 
TABS,ioos:station:wmo:42043:1,2003-12-03T06:30:00Z,28.9818,-94.9186,2.0,241.8004099,12.23179464,-99999.0,'11111222,11111222,99999999' 
TABS,ioos:station:wmo:42043:1,2003-12-03T07:00:00Z,28.9818,-94.9186,2.0,238.564808,15.43539439,-99999.0,'11111222,11111222,99999999' 
TABS,ioos:station:wmo:42043:1,2003-12-03T07:30:00Z,28.9818,-94.9186,2.0,232.5433742,15.2427983,-99999.0,'11111222,11111222,99999999' 
TABS,ioos:station:wmo:42043:1,2003-12-03T08:00:00Z,28.9818,-94.9186,2.0,232.8149596,17.10825824,-99999.0,'11111222,11111222,99999999' 
TABS,ioos:station:wmo:42043:1,2003-12-03T08:30:00Z,28.9818,-94.9186,2.0,227.5165541,15.45812408,-99999.0,'11111222,11111222,99999999' 
TABS,ioos:station:wmo:42043:1,2003-12-03T09:00:00Z,28.9818,-94.9186,2.0,240.4315556,22.10929669,-99999.0,'11111222,11111222,99999999' 
TABS,ioos:station:wmo:42043:1,2003-12-03T09:30:00Z,28.9818,-94.9186,2.0,249.2630195,22.28357467,-99999.0,'11111222,11111222,99999999' 
TABS,ioos:station:wmo:42043:1,2003-12-03T10:00:00Z,28.9818,-94.9186,2.0,255.9760515,21.91309426,-99999.0,'11111222,11111222,99999999' 
TABS,ioos:station:wmo:42043:1,2003-12-03T10:30:00Z,28.9818,-94.9186,2.0,253.0392168,21.01396916,-99999.0,'11111222,11111222,99999999' 
TABS,ioos:station:wmo:42043:1,2003-12-03T11:00:00Z,28.9818,-94.9186,2.0,268.5596639,18.30578051,-99999.0,'11111222,11111222,99999999' 
TABS,ioos:station:wmo:42043:1,2003-12-03T11:30:00Z,28.9818,-94.9186,2.0,262.4985808,17.38880387,-99999.0,'11111222,11111222,99999999' 
TABS,ioos:station:wmo:42043:1,2003-12-03T12:00:00Z,28.9818,-94.9186,2.0,262.147684,13.98108007,-99999.0,'11111222,11111222,99999999' 
TABS,ioos:station:wmo:42043:1,2003-12-03T12:30:00Z,28.9818,-94.9186,2.0,266.1330639,14.53307951,-99999.0,'11111222,11111222,99999999' 
TABS,ioos:station:wmo:42043:1,2003-12-03T13:00:00Z,28.9818,-94.9186,2.0,250.8165962,35.12008684,-99999.0,'11111222,11111222,99999999' 
TABS,ioos:station:wmo:42043:1,2003-12-03T13:30:00Z,28.9818,-94.9186,2.0,242.8358631,38.94548626,-99999.0,'11111222,11111222,99999999' 
TABS,ioos:station:wmo:42043:1,2003-12-03T14:00:00Z,28.9818,-94.9186,2.0,244.8802752,35.80637373,-99999.0,'11111222,11111222,99999999' 
TABS,ioos:station:wmo:42043:1,2003-12-03T14:30:00Z,28.9818,-94.9186,2.0,245.6359015,30.73731283,-99999.0,'11111222,11111222,99999999' 
TABS,ioos:station:wmo:42043:1,2003-12-03T15:00:00Z,28.9818,-94.9186,2.0,245.079659,29.28667274,-99999.0,'11111222,11111222,99999999' 
TABS,ioos:station:wmo:42043:1,2003-12-03T15:30:00Z,28.9818,-94.9186,2.0,251.1905405,27.6041102,-99999.0,'11111222,11111222,99999999' 
TABS,ioos:station:wmo:42043:1,2003-12-03T16:00:00Z,28.9818,-94.9186,2.0,246.278655,27.21964181,-99999.0,'11111222,11111222,99999999' 
TABS,ioos:station:wmo:42043:1,2003-12-03T16:30:00Z,28.9818,-94.9186,2.0,239.1645664,26.72812189,-99999.0,'11111222,11111222,99999999' 
TABS,ioos:station:wmo:42043:1,2003-12-03T17:00:00Z,28.9818,-94.9186,2.0,239.1671197,27.70566909,-99999.0,'11111222,11111222,99999999' 
TABS,ioos:station:wmo:42043:1,2003-12-03T17:30:00Z,28.9818,-94.9186,2.0,237.6539838,27.30708699,-99999.0,'11111222,11111222,99999999' 
TABS,ioos:station:wmo:42043:1,2003-12-03T18:00:00Z,28.9818,-94.9186,2.0,230.5984012,25.94731971,-99999.0,'11111222,11111222,99999999' 
TABS,ioos:station:wmo:42043:1,2003-12-03T18:30:00Z,28.9818,-94.9186,2.0,235.9542161,25.93550655,-99999.0,'11111222,11111222,99999999' 
TABS,ioos:station:wmo:42043:1,2003-12-03T19:00:00Z,28.9818,-94.9186,2.0,237.0121155,25.78717705,-99999.0,'11111222,11111222,99999999' 
TABS,ioos:station:wmo:42043:1,2003-12-03T19:30:00Z,28.9818,-94.9186,2.0,234.5566955,28.83294123,-99999.0,'11111222,11111222,99999999' 
TABS,ioos:station:wmo:42043:1,2003-12-03T20:00:00Z,28.9818,-94.9186,2.0,243.0313644,34.95060801,-99999.0,'11111222,11111222,99999999' 
TABS,ioos:station:wmo:42043:1,2003-12-03T20:30:00Z,28.9818,-94.9186,2.0,246.3702566,41.2156281,-99999.0,'11111222,11111222,99999999' 
TABS,ioos:station:wmo:42043:1,2003-12-03T21:00:00Z,28.9818,-94.9186,2.0,248.1382765,39.04803708,-99999.0,'11111222,11111222,99999999' 
TABS,ioos:station:wmo:42043:1,2003-12-03T21:30:00Z,28.9818,-94.9186,2.0,246.9915093,38.70935029,-99999.0,'11111222,11111222,99999999' 
TABS,ioos:station:wmo:42043:1,2003-12-03T22:00:00Z,28.9818,-94.9186,2.0,248.5858253,37.60602345,-99999.0,'11111222,11111222,99999999' 
TABS,ioos:station:wmo:42043:1,2003-12-03T22:30:00Z,28.9818,-94.9186,2.0,249.1136371,37.19395247,-99999.0,'11111222,11111222,99999999' 
TABS,ioos:station:wmo:42043:1,2003-12-03T23:00:00Z,28.9818,-94.9186,2.0,246.1747778,34.23757147,-99999.0,'11111222,11111222,99999999' 
TABS,ioos:station:wmo:42043:1,2003-12-03T23:30:00Z,28.9818,-94.9186,2.0,248.0355907,32.05671537,-99999.0,'11111222,11111222,99999999' 
TABS,ioos:station:wmo:42043:1,2003-12-04T00:00:00Z,28.9818,-94.9186,2.0,254.1081658,27.71937409,-99999.0,'11111222,11111222,99999999' 
TABS,ioos:station:wmo:42043:1,2003-12-04T00:30:00Z,28.9818,-94.9186,2.0,252.0857917,25.03362539,-99999.0,'11111222,11111222,99999999' 
TABS,ioos:station:wmo:42043:1,2003-12-04T01:00:00Z,28.9818,-94.9186,2.0,252.7286342,24.2849789,-99999.0,'11111222,11111222,99999999' 
TABS,ioos:station:wmo:42043:1,2003-12-04T01:30:00Z,28.9818,-94.9186,2.0,257.0330046,22.9963845,-99999.0,'11111222,11111222,99999999' 
TABS,ioos:station:wmo:42043:1,2003-12-04T02:00:00Z,28.9818,-94.9186,2.0,251.6510921,23.06251721,-99999.0,'11111222,11111222,99999999' 
TABS,ioos:station:wmo:42043:1,2003-12-04T02:30:00Z,28.9818,-94.9186,2.0,251.8972651,22.33554342,-99999.0,'11111222,11111222,99999999' 
TABS,ioos:station:wmo:42043:1,2003-12-04T03:00:00Z,28.9818,-94.9186,2.0,244.7474667,19.71387836,-99999.0,'11111222,11111222,99999999' 
TABS,ioos:station:wmo:42043:1,2003-12-04T03:30:00Z,28.9818,-94.9186,2.0,251.0274845,19.56270942,-99999.0,'11111222,11111222,99999999' 
TABS,ioos:station:wmo:42043:1,2003-12-04T04:00:00Z,28.9818,-94.9186,2.0,249.923166,18.8770575,-99999.0,'11111222,11111222,99999999' 
TABS,ioos:station:wmo:42043:1,2003-12-04T04:30:00Z,28.9818,-94.9186,2.0,248.7636008,18.44230192,-99999.0,'11111222,11111222,99999999' 
TABS,ioos:station:wmo:42043:1,2003-12-04T05:00:00Z,28.9818,-94.9186,2.0,248.1678315,17.50550199,-99999.0,'11111222,11111222,99999999' 
TABS,ioos:station:wmo:42043:1,2003-12-04T05:30:00Z,28.9818,-94.9186,2.0,246.0470281,17.66093146,-99999.0,'11111222,11111222,99999999' 
TABS,ioos:station:wmo:42043:1,2003-12-04T06:00:00Z,28.9818,-94.9186,2.0,239.1933141,19.3502584,-99999.0,'11111222,11111222,99999999' 
TABS,ioos:station:wmo:42043:1,2003-12-04T06:30:00Z,28.9818,-94.9186,2.0,240.1171943,19.62979368,-99999.0,'11111222,11111222,99999999' 
TABS,ioos:station:wmo:42043:1,2003-12-04T07:00:00Z,28.9818,-94.9186,2.0,226.224972,21.49388983,-99999.0,'11111222,11111222,99999999' 
TABS,ioos:station:wmo:42043:1,2003-12-04T07:30:00Z,28.9818,-94.9186,2.0,211.2978803,29.97160323,-99999.0,'11111222,11111222,99999999' 
TABS,ioos:station:wmo:42043:1,2003-12-04T08:00:00Z,28.9818,-94.9186,2.0,212.5507999,37.95176544,-99999.0,'11111222,11111222,99999999' 
TABS,ioos:station:wmo:42043:1,2003-12-04T08:30:00Z,28.9818,-94.9186,2.0,213.1443995,38.17064972,-99999.0,'11111222,11111222,99999999' 
TABS,ioos:station:wmo:42043:1,2003-12-04T09:00:00Z,28.9818,-94.9186,2.0,217.516998,40.18056495,-99999.0,'11111222,11111222,99999999' 
TABS,ioos:station:wmo:42043:1,2003-12-04T09:30:00Z,28.9818,-94.9186,2.0,220.955403,41.90851226,-99999.0,'11111222,11111222,99999999' 
TABS,ioos:station:wmo:42043:1,2003-12-04T10:00:00Z,28.9818,-94.9186,2.0,222.7484806,43.56311513,-99999.0,'11111222,11111222,99999999' 
TABS,ioos:station:wmo:42043:1,2003-12-04T10:30:00Z,28.9818,-94.9186,2.0,226.020609,41.27330372,-99999.0,'11111222,11111222,99999999' 
TABS,ioos:station:wmo:42043:1,2003-12-04T11:00:00Z,28.9818,-94.9186,2.0,227.2108514,39.95299738,-99999.0,'11111222,11111222,99999999' 
TABS,ioos:station:wmo:42043:1,2003-12-04T11:30:00Z,28.9818,-94.9186,2.0,230.6628429,37.40466548,-99999.0,'11111222,11111222,99999999' 
TABS,ioos:station:wmo:42043:1,2003-12-04T12:00:00Z,28.9818,-94.9186,2.0,231.2596122,40.14138139,-99999.0,'11111222,11111222,99999999' 
TABS,ioos:station:wmo:42043:1,2003-12-04T12:30:00Z,28.9818,-94.9186,2.0,231.0058893,38.04613647,-99999.0,'11111222,11111222,99999999' 
TABS,ioos:station:wmo:42043:1,2003-12-04T13:00:00Z,28.9818,-94.9186,2.0,235.1892239,39.29137946,-99999.0,'11111222,11111222,99999999' 
TABS,ioos:station:wmo:42043:1,2003-12-04T13:30:00Z,28.9818,-94.9186,2.0,236.721724,39.32926137,-99999.0,'11111222,11111222,99999999' 
TABS,ioos:station:wmo:42043:1,2003-12-04T14:00:00Z,28.9818,-94.9186,2.0,237.9991129,37.62780488,-99999.0,'11111222,11111222,99999999' 
TABS,ioos:station:wmo:42043:1,2003-12-04T14:30:00Z,28.9818,-94.9186,2.0,242.4564849,34.31969988,-99999.0,'11111222,11111222,99999999' 
TABS,ioos:station:wmo:42043:1,2003-12-04T15:00:00Z,28.9818,-94.9186,2.0,242.9307979,31.53424963,-99999.0,'11111222,11111222,99999999' 
TABS,ioos:station:wmo:42043:1,2003-12-04T15:30:00Z,28.9818,-94.9186,2.0,247.8159668,29.50393194,-99999.0,'11111222,11111222,99999999' 
TABS,ioos:station:wmo:42043:1,2003-12-04T16:00:00Z,28.9818,-94.9186,2.0,256.4683444,26.96858357,-99999.0,'11111222,11111222,99999999' 